Location: Frankfurt am Main
(50.1109°N, 8.6821°E)
Time: 21:40:58
(UTC+01:00)

ISS - Pass Details

Date: 23 January 2020
Orbit: 415 x 423 km, 51.6° (Epoch: 25 February)

Event Time Altitude Azimuth Distance (km) Brightness Sun altitude
Rises 19:06:22 0° 233° (SW) 2,372 1.1 -19.4°
Reaches altitude 10° 19:08:30 10° 228° (SW) 1,509 -0.2 -19.8°
Enters shadow 19:11:27 45° 173° (S) 583 -3.1 -20.2°
